Penn Yan, NY

7:45 PM EDT on March 26, 2017 (GMT -0400)
Penn Yan

Weather History for KPEO - April, 2014

Change the Weather History Date:

Thursday, April 10, 2014

  Actual Average (KITH) Record (KITH)
Temperature  
Mean Temperature 50 °F -  
Max Temperature 70 °F 50 °F 77 °F (1991)
Min Temperature 32 °F 30 °F 14 °F (1950)
Degree Days  
Heating Degree Days 14    
Moisture  
Dew Point 28 °F    
Average Humidity 43    
Maximum Humidity 73    
Minimum Humidity 21    
Precipitation  
Precipitation 0.00 in - - ()
Sea Level Pressure  
Sea Level Pressure 29.91 in    
Wind  
Wind Speed 13 mph (SSW)    
Max Wind Speed 23 mph    
Max Gust Speed 34 mph    
Visibility 10 miles    
Events      
Averages and records for this station are not official NWS values.
T = Trace of Precipitation, MM = Missing Value Source: NWS Daily Summary

Daily Weather History Graph

Daily Weather History Graph

Search for Another Location

Airport or City:

Trip Planner

Search our weather history database for the weather conditions in past years. The results will help you decide how hot, cold, wet, or windy it might be!

Date:

Astronomy

Apr. 10, 2014 Rise Set
Actual Time 6:35 AM EDT 7:44 PM EDT
Civil Twilight 6:06 AM EDT 8:13 PM EDT
Nautical Twilight 5:31 AM EDT 8:48 PM EDT
Astronomical Twilight 4:55 AM EDT 9:24 PM EDT
Moon 3:20 PM EDT (4/10) 4:02 AM EDT (4/10)
Length of Visible Light 14h 07m
Length of Day
13h 09m
Waxing Gibbous, 79% of the Moon is Illuminated
Apr 10
Waxing Gibbous
Apr 15
Full
Apr 22
Last Quarter
Apr 29
New
May 6
First Quarter

Hourly Weather History & Observations

Time (EDT) Temp. Windchill Dew Point Humidity Pressure Visibility Wind Dir Wind Speed Gust Speed Precip Events Conditions
12:53 AM 34.0 °F 27.2 °F 21.9 °F 61% 30.03 in 10.0 mi SW 8.1 mph - N/A   Clear
1:53 AM 33.1 °F 26.1 °F 24.1 °F 70% 30.03 in 10.0 mi SW 8.1 mph - N/A   Clear
2:53 AM 34.0 °F 26.6 °F 23.0 °F 64% 30.02 in 10.0 mi SSW 9.2 mph - N/A   Clear
3:53 AM 32.0 °F 24.8 °F 24.1 °F 73% 30.02 in 10.0 mi SW 8.1 mph - N/A   Clear
4:53 AM 34.0 °F 25.0 °F 23.0 °F 64% 30.01 in 10.0 mi SSW 12.7 mph - N/A   Clear
5:53 AM 35.1 °F 25.5 °F 23.0 °F 61% 30.03 in 10.0 mi SSW 15.0 mph - N/A   Clear
6:53 AM 35.1 °F 25.5 °F 24.1 °F 64% 30.04 in 10.0 mi SSW 15.0 mph - N/A   Clear
7:53 AM 37.9 °F 28.5 °F 25.0 °F 60% 30.04 in 10.0 mi SSW 17.3 mph - N/A   Clear
8:53 AM 43.0 °F 36.4 °F 26.1 °F 51% 30.03 in 10.0 mi SSW 12.7 mph 23.0 mph N/A   Clear
10:53 AM 54.0 °F - 30.0 °F 40% 29.97 in 10.0 mi SSW 19.6 mph 29.9 mph N/A   Clear
11:53 AM 57.9 °F - 30.9 °F 36% 29.94 in 10.0 mi South 17.3 mph 26.5 mph N/A   Mostly Cloudy
12:53 PM 62.1 °F - 32.0 °F 32% 29.90 in 10.0 mi SSW 19.6 mph 28.8 mph N/A   Clear
1:53 PM 64.9 °F - 30.9 °F 28% 29.88 in 10.0 mi SSW 21.9 mph 34.5 mph N/A   Partly Cloudy
2:53 PM 66.9 °F - 30.0 °F 25% 29.83 in 10.0 mi SSW 23.0 mph 34.5 mph N/A   Clear
3:53 PM 68.0 °F - 30.0 °F 24% 29.80 in 10.0 mi South 20.7 mph 31.1 mph N/A   Clear
4:53 PM 69.1 °F - 27.0 °F 21% 29.77 in 10.0 mi South 20.7 mph 29.9 mph N/A   Clear
5:53 PM 68.0 °F - 27.0 °F 21% 29.75 in 10.0 mi SSW 21.9 mph 31.1 mph N/A   Clear
6:53 PM 66.0 °F - 30.0 °F 26% 29.75 in 10.0 mi South 16.1 mph 26.5 mph N/A   Mostly Cloudy
7:53 PM 64.9 °F - 30.9 °F 28% 29.76 in 10.0 mi South 15.0 mph 25.3 mph N/A   Overcast
8:53 PM 63.0 °F - 32.0 °F 31% 29.78 in 10.0 mi SSW 12.7 mph - N/A   Overcast
9:53 PM 63.0 °F - 32.0 °F 31% 29.81 in 10.0 mi SSW 10.4 mph - N/A   Overcast
10:53 PM 63.0 °F - 33.1 °F 33% 29.81 in 10.0 mi South 9.2 mph - N/A   Overcast
11:53 PM 59.0 °F - 34.0 °F 39% 29.82 in 10.0 mi SSW 3.5 mph - N/A   Overcast